Presure
200 182 179 186 196 199 206 191 220 206 212 200 201 221 183 214 216 182 219 204 208 241 236 240 300 287 289
177 198 188 180 189 191 210 215 214 212 210 208 210 218 200 216 206 196 197 234 256 224 242 265 217 242 287
187 192 198 187 192 209 208 222 206 216 208 226 208 217 218 228 146 213 198 215 192 226 298 194 192 418 464
197 203 209 214 208 209 211 209 215 227 219 223 223 232 207 233 189 209 217 248 284 295 166 279 375 457 453
196 205 218 204 207 218 213 213 218 205 217 219 220 210 214 232 214 263 279 249 216 250 292 475 454 439 431
195 212 201 196 215 222 210 209 194 213 238 198 225 212 214 229 251 267 174 306 265 293 400 467 442 422 408
189 212 197 208 219 221 197 210 224 228 212 228 224 216 251 241 193 282 332 282 388 395 391 454 431 407 391
204 210 221 213 217 218 224 223 236 222 216 200 228 217 242 256 290 278 286 363 388 377 383 446 421 397 384
216 229 208 223 230 209 231 223 205 183 240 223 237 252 242 267 314 267 394 389 379 365 368 446 412 389 376
214 225 219 211 208 228 229 203 220 218 166 233 241 235 280 325 317 393 384 376 371 360 351 487 410 376 366
220 219 221 233 235 224 211 218 208 197 233 268 263 301 267 262 404 386 376 365 359 375 343 403 466 397 369
219 218 221 233 161 230 178 155 237 244 263 260 263 258 259 452 411 381 368 358 351 359 349 347 379 408 373
229 227 216 237 229 220 177 238 219 225 268 314 268 258 391 444 412 378 362 349 343 348 349 340 386 371 362
225 214 163 154 207 229 215 246 265 268 289 278 297 398 384 429 406 374 360 346 344 354 351 340 388 376 368
129 153 214 235 229 237 247 265 284 261 261 368 378 388 374 421 392 367 352 343 359 359 352 349 381 368 364
230 227 229 239 225 235 248 315 295 373 387 391 385 377 366 395 389 366 350 353 360 353 345 383 364 374 438
240 214 206 257 274 282 270 278 532 524 520 446 396 371 365 383 364 375 363 357 352 349 385 370 424 388 443
Wind_Speed
93 89 93 94 100 101 103 90 102 104 100 104 103 104 95 105 105 109 113 118 118 110 106 109 133 118 107
93 102 98 98 101 105 107 104 103 102 102 102 103 103 110 109 114 119 120 123 129 110 118 117 118 117 93
100 104 105 104 107 109 107 109 106 104 103 105 102 105 113 118 67 115 105 115 97 122 139 101 86 62 57
108 109 110 108 107 107 108 106 106 110 107 112 110 118 113 119 96 117 121 131 146 132 82 106 79 54 51
107 113 114 108 110 111 106 104 108 104 108 113 112 112 114 128 116 145 150 125 99 101 119 52 52 51 49
111 112 113 111 114 111 105 104 102 117 124 108 121 121 116 125 140 148 85 148 108 120 72 47 47 47 46
111 117 116 115 111 107 101 110 115 122 103 125 118 108 150 137 101 157 142 123 83 71 68 46 44 44 45
118 118 114 112 108 106 112 112 133 119 111 102 120 120 140 138 157 134 124 90 69 66 62 46 44 43 43
118 117 111 110 115 95 128 116 98 94 145 107 136 147 124 162 142 128 75 71 63 61 58 44 44 42 42
114 118 112 98 95 131 131 97 111 116 83 118 131 110 161 130 131 70 70 69 62 57 55 39 42 41 42
117 116 121 135 137 131 121 105 119 93 122 162 152 152 119 120 57 62 63 62 59 54 51 43 34 40 42
117 118 118 139 81 131 95 77 140 143 169 157 116 112 114 48 47 53 56 58 54 49 48 47 41 35 40
133 132 111 146 133 103 85 148 99 105 160 144 122 111 68 47 42 45 47 53 54 49 45 46 41 40 39
126 110 83 75 106 124 89 166 168 161 145 136 125 68 65 47 42 41 45 46 50 47 44 45 40 39 39
56 71 124 145 128 147 153 167 152 127 130 82 76 64 63 46 41 42 41 46 44 43 42 43 40 39 39
141 126 131 148 109 127 145 140 126 87 75 69 62 56 57 51 44 38 42 41 41 41 40 38 41 42 41
154 106 81 163 167 147 127 139 47 43 40 46 48 48 45 39 51 42 37 39 38 41 40 38 37 39 38
Wind_Direction
294 288 287 289 292 294 295 296 300 293 296 291 292 300 292 297 298 288 294 287 291 304 288 289 303 298 293
288 293 289 288 291 291 297 296 295 296 296 294 295 299 291 301 288 286 286 307 313 294 291 301 295 289 291
290 290 292 290 290 296 295 298 293 297 296 303 295 299 305 308 300 292 299 301 293 298 310 292 290 283 280
290 292 293 294 293 293 294 296 297 300 302 306 307 309 290 312 289 291 288 305 311 306 283 304 297 280 276
291 293 293 292 292 296 296 299 298 298 304 303 305 299 297 310 295 312 312 305 297 303 308 284 281 279 276
290 291 291 294 295 298 298 298 297 302 309 291 314 300 298 308 313 314 293 312 307 308 302 283 279 277 276
293 290 293 295 296 298 300 301 306 309 298 312 312 304 313 312 302 313 309 310 306 305 304 288 281 276 276
289 289 292 293 297 299 305 311 309 307 298 289 312 310 316 315 311 312 314 308 305 306 305 289 282 277 275
289 296 293 298 302 300 309 310 293 309 311 306 314 316 313 314 308 312 304 304 306 305 305 288 283 280 277
295 297 300 304 301 308 310 301 305 304 300 312 313 308 313 307 307 299 300 302 304 303 304 286 284 282 278
297 301 306 303 304 309 310 306 309 298 308 315 314 311 312 311 293 294 296 299 301 304 301 302 286 281 275
299 305 308 305 308 307 305 300 313 313 312 316 311 312 314 300 292 291 295 297 300 303 301 302 295 286 279
301 303 308 306 310 306 300 311 308 311 315 310 314 314 311 303 295 290 291 296 299 301 301 299 294 288 284
303 306 296 294 302 309 306 314 310 309 309 310 310 311 311 303 298 293 295 295 297 300 300 299 292 288 286
311 291 305 310 311 312 311 309 308 311 311 306 308 309 309 302 298 298 298 296 299 298 300 299 295 292 290
304 307 310 309 312 308 315 311 308 305 302 301 302 306 307 303 298 301 299 299 300 300 300 300 297 296 293
302 305 306 308 306 305 310 311 306 305 301 290 296 302 303 299 301 306 304 304 304 304 305 303 303 299 298